STARLINK-2674, 48354

Orbit data source: Space-Track

STARLINK-2674, 48354 is a payload satellite owned by SpaceX/Seattle (US) in LEO that was launched on Tue, 04 May 2021 UTC via an FALCON 9 launch vehicle from the Air Force Eastern Test Range (AFETR). Payload-class satellites include a variety of spacecraft equipped with specific instruments for various scientific and technological missions. These include communications satellites like Starlink; space stations such as the ISS; scientific satellites like the Hubble; Earth observation satellites from companies like Planet Labs, Umbra, and HawkEye 360; GPS; miniature CubeSats for education and research; and military/defense satellites.

Loading next visibility...
Identifier
48354, 2021-038B
Orbit
LEO
Country
Flag of USUS
Related business
Manufacturer
SpaceX/Seattle
Mission
Operational Commercial Communications
Bus & Motor
STARLINK, Unknown motor
Mass
260 kg wet, ~248 kg dry
Launch date (UTC)
2021-05-04 (5 years ago)
Launch vehicle
FALCON 9
Launch site
Air Force Eastern Test Range (AFETR)
Object type
Payload
Rocket body
Debris
Shape & HBR
Box + 1 Pan, 10.1 m
Radar Cross Section
13.562 m², Large (>1 m²)

Expand to show TLE details & history
Last TLE update: 2 days ago

TLE from 2 days ago
0 STARLINK-2674
1 48354U 21038B   26171.45316438  .00001150  00000-0  48806-4 0  9996
2 48354  53.1589 240.1426 0001103  59.9249 300.1861 15.31698425282824
Epoch: 2026-06-20T10:52Z
TLE epoch observation values (Epoch: 2026-06-20T10:52:33.402Z)
Latitude
-0.00007°
Longitude
168.3358°
Altitude
471.265 km
Speed
7.632 km/s
True Right ascension
16h 00m 34s
True Declination
0° 00' 00"
Sunlit
Object was in full shadow at epoch
Visualization orbit readout
Latitude
Unknown
Longitude
Unknown
Altitude
Unknown
Speed
Unknown
Apparent Right ascension
Unknown
Apparent Declination
Unknown
Sunlit
N/A
Visualization observer readout
Local Sidereal Time
21:33:05
Azimuth
Unknown
Elevation
Unknown
Doppler factor
Unknown
Orbital elements
Apogee altitude
471.757 km
Perigee altitude
470.246 km
Semi-major axis
6,849.138 km
Eccentricity
0.00011
Inclination
53.1589°
RAAN
240.1426°
Arg. of periapsis
59.9249°
True anomaly
300.17517°
Mean anomaly
300.1861°
Eccentric anomaly
300.18064°
Mean motion
3.82903 °/min
Orbital period
94.02 mins
BSTAR
0.000048806
Loading maneuver chart data...
Computing Atmospheric mass density...

Documentation

Showing up to 5 results
|